Weather History for Leadville, CO

Change the Weather History Date:

Sunday, June 2, 2013

  Actual Average Record
Temperature  
Mean Temperature 46 °F -  
Max Temperature 66 °F 61 °F 71 °F (1998)
Min Temperature 26 °F 31 °F 22 °F (1990)
Degree Days  
Heating Degree Days 19 19  
Month to date heating degree days 40 39  
Since 1 June heating degree days 40 39  
Since 1 July heating degree days 10797 10793  
Cooling Degree Days 0 0  
Month to date cooling degree days 0 0  
Year to date cooling degree days 0 0  
Since 1 June cooling degree days 0 0  
Moisture  
Dew Point 15 °F    
Average Humidity 46    
Maximum Humidity 81    
Minimum Humidity 10    
Precipitation  
Precipitation 0.00 in 0.03 in 0.25 in (1991)
Month to date precipitation 0.00 0.06  
Year to date precipitation 7.30 4.19  
Sea Level Pressure  
Sea Level Pressure 29.91 in    
Wind  
Wind Speed 6 mph (WSW)    
Max Wind Speed 22 mph    
Max Gust Speed 28 mph    
Visibility 10 miles    
Events      
T = Trace of Precipitation, MM = Missing Value Source: NWS Daily Summary

Daily Weather History Graph

Daily Weather History Graph

Search for Another Location

Airport:

Trip Planner

Search our weather history database for the weather conditions in past years. The results will help you decide how hot, cold, wet, or windy it might be!

Date:

Astronomy

Jun. 02, 2013 Rise Set
Actual Time 5:40 AM MDT 8:26 PM MDT
Civil Twilight 5:08 AM MDT 8:58 PM MDT
Nautical Twilight 4:28 AM MDT 9:38 PM MDT
Astronomical Twilight 3:43 AM MDT 10:23 PM MDT
Moon 2:06 AM MDT (6/2) 3:01 PM MDT (6/2)
Length of Visible Light 15h 49m
Length of Day
14h 46m
Waning Crescent, 30% of the Moon is Illuminated
Jun 2
Waning Crescent
Jun 8
New
Jun 16
First Quarter
Jun 23
Full
Jun 29
Last Quarter

Hourly Weather History & Observations

Time (MDT) Temp. Windchill Dew Point Humidity Pressure Visibility Wind Dir Wind Speed Gust Speed Precip Events Conditions
12:53 AM 36.0 °F - 23.0 °F 59% 30.03 in 10.0 mi Calm Calm - N/A   Clear
1:53 AM 33.1 °F 27.7 °F 23.0 °F 66% 30.03 in 10.0 mi NE 5.8 mph - N/A   Clear
2:53 AM 32.0 °F 27.5 °F 23.0 °F 69% 30.03 in 10.0 mi NE 4.6 mph - N/A   Clear
3:53 AM 30.0 °F 24.1 °F 23.0 °F 75% 30.02 in 10.0 mi ENE 5.8 mph - N/A   Clear
4:53 AM 28.9 °F 22.8 °F 23.0 °F 78% 30.01 in 10.0 mi ENE 5.8 mph - N/A   Clear
5:53 AM 27.0 °F - 21.9 °F 81% 30.02 in 10.0 mi Calm Calm - N/A   Clear
6:53 AM 33.1 °F - 24.1 °F 70% 29.99 in 10.0 mi Calm Calm - N/A   Clear
7:53 AM 39.0 °F - 25.0 °F 57% 29.97 in 10.0 mi Calm Calm - N/A   Clear
8:53 AM 45.0 °F - 26.1 °F 48% 29.97 in 10.0 mi Calm Calm - N/A   Clear
9:53 AM 55.0 °F - 17.1 °F 23% 29.90 in 10.0 mi NNW 4.6 mph - N/A   Clear
10:53 AM 57.0 °F - 12.0 °F 17% 29.87 in 10.0 mi SSW 5.8 mph - N/A   Clear
11:53 AM 61.0 °F - 7.0 °F 12% 29.88 in 10.0 mi West 8.1 mph 16.1 mph N/A   Clear
12:53 PM 63.0 °F - 8.1 °F 11% 29.83 in 10.0 mi SW 12.7 mph 21.9 mph N/A   Clear
1:53 PM 64.0 °F - 8.1 °F 11% 29.83 in 10.0 mi WSW 11.5 mph 18.4 mph N/A   Clear
2:53 PM 64.0 °F - 8.1 °F 11% 29.84 in 10.0 mi WSW 11.5 mph 24.2 mph N/A   Clear
3:45 PM 62.6 °F - 6.8 °F 11% 30.24 in 10.0 mi WSW 10.4 mph 20.7 mph N/A   Clear
3:53 PM 64.0 °F - 6.1 °F 10% 29.83 in 10.0 mi SSW 18.4 mph 27.6 mph N/A   Clear
4:53 PM 62.1 °F - 5.0 °F 10% 29.85 in 10.0 mi WSW 15.0 mph 21.9 mph N/A   Clear
5:53 PM 61.0 °F - 3.0 °F 10% 29.87 in 10.0 mi WSW 10.4 mph - N/A   Clear
6:53 PM 60.1 °F - 7.0 °F 12% 29.82 in 10.0 mi WSW 4.6 mph - N/A   Clear
7:53 PM 57.9 °F - 12.0 °F 16% 29.80 in 10.0 mi West 4.6 mph - N/A   Clear
8:53 PM 53.1 °F - 14.0 °F 21% 29.79 in 10.0 mi Calm Calm - N/A   Clear
9:53 PM 48.9 °F - 14.0 °F 25% 29.76 in 10.0 mi East 4.6 mph - N/A   Clear
10:53 PM 45.0 °F - 17.1 °F 33% 29.77 in 10.0 mi Calm Calm - N/A   Clear
11:53 PM 41.0 °F - 19.0 °F 41% 29.75 in 10.0 mi Calm Calm - N/A   Clear